Stations météo

réclame
Mon MeteoGroup
Strathallan, Grande-Bretagne (3144): Température de l'air & dewpoint: 17.04.2018 02:00:00 - 23.04.2018 02:00:00 (BST)Strathallan, Grande-Bretagne (3144): Température de l'air -20cm & Température de l'air -100cm: 17.04.2018 02:00:00 - 23.04.2018 02:00:00 (BST)Strathallan, Grande-Bretagne (3144): Vitesse du vent & gusts: 17.04.2018 02:00:00 - 23.04.2018 02:00:00 (BST)Strathallan, Grande-Bretagne (3144): Direction du vent: 17.04.2018 02:00:00 - 23.04.2018 02:00:00 (BST)Strathallan, Grande-Bretagne (3144): reduced air pressure: 17.04.2018 02:00:00 - 23.04.2018 02:00:00 (BST)Strathallan, Grande-Bretagne (3144): visibility: 17.04.2018 02:00:00 - 23.04.2018 02:00:00 (BST)Strathallan, Grande-Bretagne (3144): Quantités de précipitations: 17.04.2018 02:00:00 - 23.04.2018 02:00:00 (BST)
Date & Time tt [°C] td [°C] tt -20cm [°C] tt -100cm [°C] ff [km/h] ff [knt] fx [km/h] fx [knt] dd ppp [hPa] vv [km] rr [mm]
23.04.2018 02:00:00 8,4 7,3 - - 26 14 - - SW 1002,3 23 0,0
23.04.2018 01:00:00 8,4 6,9 - - 24 13 - - SW 1002,3 11 0,0
23.04.2018 00:00:00 8,5 7,1 - - 24 13 - - SW 1002,3 12 0,0
22.04.2018 23:00:00 8,9 7,2 - - 22 12 - - SW 1002,2 24 0,0
22.04.2018 22:00:00 9,5 7,5 - - 18 10 - - SW 1002,1 15 0,0
22.04.2018 21:00:00 10,1 6,6 - - 13 7 - - SW 1002,1 17 0,0
22.04.2018 20:00:00 10,2 6,2 - - 16 9 - - SW 1002,1 50 0,0
22.04.2018 19:00:00 10,8 6,0 - - 18 10 - - SW 1002,2 28 0,0
22.04.2018 18:00:00 11,9 4,9 - - 24 13 - - WSW 1002,0 50 0,0
22.04.2018 17:00:00 11,9 5,9 - - 22 12 - - WSW 1002,2 50 0,0
22.04.2018 16:00:00 11,1 6,8 - - 22 12 - - WSW 1002,3 40 0,0
22.04.2018 15:00:00 11,5 8,1 - - 29 16 - - SW 1002,3 35 0,0
22.04.2018 14:00:00 9,9 7,4 - - 21 11 - - SW 1002,4 14 0,4
22.04.2018 13:00:00 9,5 7,3 - - 18 10 - - SW 1002,6 3,6 0,0
22.04.2018 12:00:00 10,4 7,7 - - 21 11 - - WSW 1002,6 45 0,0
22.04.2018 11:00:00 10,8 7,6 - - 15 8 - - SW 1002,9 20 0,0
22.04.2018 10:00:00 10,6 7,3 9,2 6,2 13 7 - - SW 1003,4 15 0,0
22.04.2018 09:00:00 8,9 8,1 - - 2 1 - - WNW 1003,7 5 0,0
22.04.2018 08:00:00 8,1 7,7 - - 4 2 - - NNE 1003,7 3,8 0,0
22.04.2018 07:00:00 8,2 7,6 - - 2 1 - - NNE 1003,8 4,3 0,0
22.04.2018 06:00:00 8,2 7,6 - - 2 1 - - E 1004,2 5 0,0
22.04.2018 05:00:00 8,3 7,5 - - 2 1 - - NNE 1005,1 6 0,0
22.04.2018 04:00:00 8,3 7,3 - - 5 3 - - NNE 1006,1 7 0,0
22.04.2018 03:00:00 8,8 7,6 - - 4 2 - - NE 1007,2 9 0,0
22.04.2018 02:00:00 8,9 7,5 - - 5 3 - - NE 1008,1 12 0,0
22.04.2018 01:00:00 9,0 7,3 - - 8 4 - - ENE 1009,1 14 0,0
22.04.2018 00:00:00 8,4 7,7 - - 2 1 - - ENE 1009,9 14 0,0
21.04.2018 23:00:00 7,7 6,4 - - 2 1 - - E 1010,5 10 0,0
21.04.2018 22:00:00 9,7 7,5 - - 9 5 - - E 1011,1 17 0,0
21.04.2018 21:00:00 11,5 6,3 - - 4 2 - - NNE 1011,6 45 0,0
21.04.2018 20:00:00 14,3 7,0 - - 8 4 - - ESE 1012,2 35 0,0
21.04.2018 19:00:00 17,4 4,9 - - 9 5 - - SSE 1012,9 50 0,0
21.04.2018 18:00:00 17,7 5,2 - - 11 6 - - S 1013,7 35 0,0
21.04.2018 17:00:00 17,5 4,2 - - 11 6 - - S 1014,7 29 0,0
21.04.2018 16:00:00 17,0 6,6 - - 9 5 - - S 1015,9 35 0,0
21.04.2018 15:00:00 15,9 6,5 - - 9 5 - - S 1017,0 35 0,0
21.04.2018 14:00:00 14,9 6,1 - - 15 8 - - SW 1018,1 45 0,0
21.04.2018 13:00:00 14,9 9,0 - - 4 2 - - N 1018,9 23 0,0
21.04.2018 12:00:00 13,4 7,0 - - 5 3 - - NNE 1019,9 35 0,0
21.04.2018 11:00:00 11,3 6,6 - - 4 2 - - NNW 1020,9 30 0,0
21.04.2018 10:00:00 9,5 6,3 8,7 6,2 2 1 - - NW 1021,5 45 0,0
21.04.2018 09:00:00 6,4 5,5 - - 4 2 - - W 1021,9 35 0,0
21.04.2018 08:00:00 4,6 4,6 - - 2 1 - - W 1022,3 45 0,0
21.04.2018 07:00:00 2,0 1,9 - - 0 0 - - N 1022,5 45 0,0
21.04.2018 06:00:00 1,8 1,5 - - 2 1 - - WNW 1022,5 50 0,0
21.04.2018 05:00:00 2,2 1,9 - - 8 4 - - WSW 1022,6 45 0,0
21.04.2018 04:00:00 2,8 2,3 - - 4 2 - - WSW 1023,0 45 0,0
21.04.2018 03:00:00 3,9 2,9 - - 2 1 - - SW 1023,2 50 0,0
21.04.2018 02:00:00 5,3 3,3 - - 4 2 - - NW 1023,6 50 0,0
21.04.2018 01:00:00 7,4 4,6 - - 15 8 - - WSW 1023,7 50 0,0
21.04.2018 00:00:00 6,3 4,4 - - 9 5 - - WSW 1023,6 45 0,0
20.04.2018 23:00:00 7,9 4,7 - - 5 3 - - NNW 1023,5 50 0,0
20.04.2018 22:00:00 9,2 4,9 - - 9 5 - - SW 1023,3 50 0,0
20.04.2018 21:00:00 10,9 5,4 - - 11 6 - - SW 1023,1 50 0,0
20.04.2018 20:00:00 12,0 5,3 - - 9 5 - - WSW 1022,7 45 0,0
20.04.2018 19:00:00 13,1 6,1 - - 18 10 - - WSW 1022,2 45 0,0
20.04.2018 18:00:00 13,2 6,1 - - 18 10 - - WSW 1022,3 30 0,0
20.04.2018 17:00:00 14,2 6,8 - - 22 12 52 28 WSW 1022,3 40 0,2
20.04.2018 16:00:00 13,7 5,5 - - 21 11 - - WSW 1022,0 50 0,0
20.04.2018 15:00:00 13,7 6,2 - - 24 13 - - SW 1022,1 26 0,0
20.04.2018 14:00:00 14,0 6,5 - - 28 15 - - WSW 1022,0 50 0,0
20.04.2018 13:00:00 14,8 7,6 - - 21 11 - - SW 1021,7 35 0,0
20.04.2018 12:00:00 14,3 8,7 - - 21 11 - - WSW 1021,8 45 0,0
20.04.2018 11:00:00 13,1 7,9 - - 22 12 - - SW 1021,8 30 0,0
20.04.2018 10:00:00 12,3 8,9 8,7 6,0 22 12 - - SW 1021,8 28 0,0
20.04.2018 09:00:00 11,4 9,8 - - 16 9 - - SW 1021,9 14 0,0
20.04.2018 08:00:00 10,7 9,2 - - 21 11 - - SW 1022,0 14 0,0
20.04.2018 07:00:00 10,7 9,3 - - 18 10 - - SW 1021,8 18 0,0
20.04.2018 06:00:00 10,0 8,7 - - 9 5 - - SW 1021,7 22 0,0
20.04.2018 05:00:00 10,5 9,1 - - 9 5 - - WSW 1021,8 30 0,0
20.04.2018 04:00:00 10,4 9,2 - - 9 5 - - WSW 1021,9 21 0,0
20.04.2018 03:00:00 9,7 9,7 - - 9 5 - - SW 1022,4 27 0,0
20.04.2018 02:00:00 7,2 7,0 - - 4 2 - - SSW 1022,7 10 0,0
20.04.2018 01:00:00 7,5 7,1 - - 2 1 - - SSW 1023,0 10 0,0
20.04.2018 00:00:00 8,1 7,8 - - 5 3 - - W 1023,2 20 0,0
19.04.2018 23:00:00 8,3 7,5 - - 2 1 - - W 1023,2 19 0,0
19.04.2018 22:00:00 10,3 8,8 - - 4 2 - - WSW 1023,3 50 0,0
19.04.2018 21:00:00 12,1 9,2 - - 2 1 - - WNW 1022,9 50 0,0
19.04.2018 20:00:00 14,2 9,9 - - 8 4 - - WSW 1022,4 45 0,0
19.04.2018 19:00:00 15,5 9,9 - - 15 8 - - WSW 1022,4 45 0,0
19.04.2018 18:00:00 15,5 10,5 - - 15 8 - - SW 1022,6 35 0,0
19.04.2018 17:00:00 15,7 11,0 - - 22 12 - - WSW 1022,4 45 0,0
19.04.2018 16:00:00 14,8 10,9 - - 16 9 - - SW 1022,4 40 0,0
19.04.2018 15:00:00 13,9 10,8 - - 18 10 - - WSW 1022,7 35 0,0
19.04.2018 14:00:00 14,5 11,0 - - 16 9 - - WSW 1022,2 45 0,0
19.04.2018 13:00:00 14,7 11,1 - - 13 7 - - WSW 1021,6 30 0,0
19.04.2018 12:00:00 14,6 10,6 - - 15 8 - - W 1021,5 40 0,0
19.04.2018 11:00:00 14,5 10,4 - - 8 4 - - WSW 1021,3 27 0,0
19.04.2018 10:00:00 14,4 9,9 8,5 5,7 11 6 - - SW 1020,9 50 0,0
19.04.2018 09:00:00 14,7 9,8 - - 18 10 - - SW 1020,3 45 -
19.04.2018 08:00:00 13,9 10,6 - - 8 4 - - WSW 1020,0 30 0,0
19.04.2018 07:00:00 9,8 8,6 - - 5 3 - - W 1019,5 35 -
19.04.2018 06:00:00 10,5 8,2 - - 4 2 - - W 1019,5 35 -
19.04.2018 05:00:00 10,9 8,1 - - 5 3 - - N 1019,2 45 -
19.04.2018 04:00:00 13,1 9,2 - - 5 3 - - WNW 1019,4 45 -
19.04.2018 03:00:00 12,1 10,2 - - 5 3 - - NW 1019,5 40 -
19.04.2018 02:00:00 12,6 10,4 - - 2 1 - - WNW 1019,6 35 0,0
19.04.2018 01:00:00 13,4 10,7 - - 4 2 - - E 1019,8 17 0,0
19.04.2018 00:00:00 13,9 10,5 - - 4 2 - - NE 1019,9 50 0,0
18.04.2018 23:00:00 13,4 10,1 - - 16 9 - - E 1020,0 50 0,0
18.04.2018 22:00:00 13,8 10,0 - - 15 8 - - ENE 1020,4 45 0,0
18.04.2018 21:00:00 13,9 9,9 - - 11 6 - - E 1020,7 45 0,0
18.04.2018 20:00:00 14,6 9,9 - - 11 6 - - E 1020,8 35 0,0
18.04.2018 19:00:00 15,5 9,7 - - 15 8 - - SSE 1020,9 50 0,0
18.04.2018 18:00:00 15,9 10,7 - - 13 7 - - SSE 1020,7 45 0,0
18.04.2018 17:00:00 16,3 11,2 - - 13 7 - - S 1021,1 30 0,0
18.04.2018 16:00:00 14,1 10,4 - - 9 5 - - S 1021,6 50 0,0
18.04.2018 15:00:00 14,9 10,5 - - 13 7 - - SSE 1021,5 40 0,0
18.04.2018 14:00:00 14,2 11,0 - - 15 8 - - SW 1021,2 50 0,0
18.04.2018 13:00:00 13,8 10,7 - - 4 2 - - SW 1020,8 50 0,0
18.04.2018 12:00:00 13,9 10,3 - - 16 9 - - SSW 1020,3 50 0,0
18.04.2018 11:00:00 12,8 10,3 - - 4 2 - - W 1020,0 50 0,0
18.04.2018 10:00:00 12,9 10,0 8,0 5,7 9 5 - - SSW 1019,2 50 0,0
18.04.2018 09:00:00 12,4 9,7 - - 5 3 - - S 1018,9 40 0,0
18.04.2018 08:00:00 10,4 8,9 - - 2 1 - - NW 1018,8 14 0,0
18.04.2018 07:00:00 8,7 7,2 - - 5 3 - - W 1018,1 20 0,0
18.04.2018 06:00:00 9,4 6,9 - - 2 1 - - WSW 1017,3 16 0,0
18.04.2018 05:00:00 10,3 7,3 - - 9 5 - - WSW 1016,9 20 0,0
18.04.2018 04:00:00 11,0 7,6 - - 9 5 - - SW 1016,6 15 0,0
18.04.2018 03:00:00 11,0 7,6 - - 13 7 - - SW 1015,9 16 0,0
18.04.2018 02:00:00 11,1 7,5 - - 15 8 - - SSW 1015,8 17 0,0
18.04.2018 01:00:00 11,3 7,8 - - 8 4 - - SSW 1014,6 16 0,0
18.04.2018 00:00:00 11,5 8,0 - - 11 6 - - SSW 1014,4 14 0,0
17.04.2018 23:00:00 11,8 8,1 - - 11 6 - - SW 1013,3 14 0,0
17.04.2018 22:00:00 11,8 8,1 - - 15 8 - - SSW 1011,7 16 0,0
17.04.2018 21:00:00 12,1 8,4 - - 22 12 - - SSW 1011,0 16 0,4
17.04.2018 20:00:00 12,6 8,6 - - 26 14 52 28 SSW 1009,7 10 0,2
17.04.2018 19:00:00 13,5 8,0 - - 21 11 - - SSW 1008,6 18 0,0
17.04.2018 18:00:00 14,0 8,1 - - 22 12 48 26 SSW 1007,8 17 0,0
17.04.2018 17:00:00 14,0 8,2 - - 22 12 54 29 SSW 1007,1 19 0,0
17.04.2018 16:00:00 14,8 8,5 - - 24 13 52 28 SSW 1006,2 24 0,0
17.04.2018 15:00:00 14,8 8,5 - - 24 13 54 29 SSW 1006,0 28 0,0
17.04.2018 14:00:00 14,2 9,2 - - 22 12 - - SSW 1005,7 45 0,0
17.04.2018 13:00:00 14,5 8,8 - - 21 11 50 27 SSW 1005,4 29 0,0
17.04.2018 12:00:00 13,4 8,3 - - 22 12 46 25 SSW 1005,2 50 0,0
17.04.2018 11:00:00 13,0 8,1 - - 24 13 - - SSW 1004,7 30 0,0
17.04.2018 10:00:00 12,1 8,5 7,5 5,5 18 10 50 27 S 1004,0 45 0,0
17.04.2018 09:00:00 11,5 8,5 - - 22 12 54 29 S 1003,6 50 0,4
17.04.2018 08:00:00 11,4 8,3 - - 16 9 - - S 1003,5 17 0,4
17.04.2018 07:00:00 11,2 7,5 - - 16 9 - - S 1003,4 50 0,0
17.04.2018 06:00:00 10,2 7,0 - - 11 6 - - SE 1003,8 35 1,6
17.04.2018 05:00:00 10,1 6,3 - - 15 8 - - SE 1004,4 8 0,4
17.04.2018 04:00:00 8,9 6,6 - - 9 5 - - E 1005,4 23 0,2
17.04.2018 03:00:00 8,5 6,7 - - 9 5 - - ESE 1006,3 24 0,2
17.04.2018 02:00:00 8,6 6,5 - - 5 3 - - SE 1007,3 22 0,0

tt = Température de l'air
td = dewpoint
tt -20cm = Température de l'air -20cm
tt -100cm = Température de l'air -100cm
ff = Vitesse du vent
fx = gusts
dd = Direction du vent
ppp = reduced air pressure
vv = visibility
rr = Quantités de précipitations

stations d'obs. à proximité